Weather History for KMMT - October, 2013

Change the Weather History Date:

Sunday, October 6, 2013

  Actual Average (KCUB) Record (KCUB)
Temperature  
Mean Temperature 73 °F 69 °F  
Max Temperature 86 °F 80 °F - ()
Min Temperature 60 °F 59 °F - ()
Degree Days  
Heating Degree Days 0 1  
Month to date heating degree days 6  
Since 1 July heating degree days 9  
Cooling Degree Days 8 5  
Month to date cooling degree days 35  
Year to date cooling degree days 2182  
Growing Degree Days 23 (Base 50)    
Moisture  
Dew Point 66 °F    
Average Humidity 93    
Maximum Humidity 100    
Minimum Humidity 48    
Precipitation  
Precipitation 0.00 in 0.12 in - ()
Month to date precipitation 0.73  
Year to date precipitation 36.62  
Sea Level Pressure  
Sea Level Pressure 30.02 in    
Wind  
Wind Speed 1 mph (SE)    
Max Wind Speed 10 mph    
Max Gust Speed -    
Visibility 5 miles    
Events Fog , Rain    
T = Trace of Precipitation, MM = Missing Value Source: NWS Daily Summary

Daily Weather History Graph

Daily Weather History Graph

Search for Another Location

Airport or City:

Trip Planner

Search our weather history database for the weather conditions in past years. The results will help you decide how hot, cold, wet, or windy it might be!

Date:

Astronomy

Oct. 06, 2013 Rise Set
Actual Time 7:21 AM EDT 7:00 PM EDT
Civil Twilight 6:56 AM EDT 7:25 PM EDT
Nautical Twilight 6:27 AM EDT 7:54 PM EDT
Astronomical Twilight 5:58 AM EDT 8:23 PM EDT
Moon 8:58 AM EDT (10/6) 8:05 PM EDT (10/6)
Length of Visible Light 12h 28m
Length of Day
11h 38m
Waxing Crescent, 3% of the Moon is Illuminated
Oct 6
Waxing Crescent
Oct 11
First Quarter
Oct 18
Full
Oct 26
Last Quarter
Nov 3
New

Hourly Weather History & Observations

Time (EDT) Temp. Heat Index Dew Point Humidity Pressure Visibility Wind Dir Wind Speed Gust Speed Precip Events Conditions
12:58 AM 64.4 °F - 64.0 °F 99% 30.07 in 8.0 mi Calm Calm - N/A   Clear
1:58 AM 63.3 °F - 63.1 °F 99% 30.06 in 3.0 mi NE 1.2 mph - N/A   Clear
2:08 AM 62.6 °F - 62.6 °F 100% 30.06 in 1.0 mi Calm Calm - N/A   Clear
2:18 AM 64.4 °F - 64.4 °F 100% 30.05 in 5.0 mi Calm Calm - N/A   Clear
2:38 AM 62.6 °F - 62.6 °F 100% 30.05 in 0.8 mi Calm Calm - N/A   Clear
2:48 AM 62.6 °F - 62.6 °F 100% 30.05 in 1.5 mi Calm Calm - N/A   Clear
2:58 AM 62.6 °F - 62.6 °F 100% 30.04 in 1.2 mi Calm Calm - N/A   Clear
3:08 AM 62.6 °F - 62.6 °F 100% 30.04 in 1.0 mi Calm Calm - N/A   Clear
3:18 AM 62.6 °F - 62.6 °F 100% 30.04 in 0.2 mi Calm Calm - N/A Fog Fog
3:28 AM 62.6 °F - 62.6 °F 100% 30.03 in 0.8 mi Calm Calm - N/A   Clear
3:38 AM 62.6 °F - 62.6 °F 100% 30.03 in 6.0 mi Calm Calm - N/A   Clear
3:48 AM 62.6 °F - 62.6 °F 100% 30.03 in 1.8 mi Calm Calm - N/A   Clear
3:58 AM 61.7 °F - 61.7 °F 100% 30.04 in 0.2 mi Calm Calm - N/A Fog Fog
4:08 AM 60.8 °F - 60.8 °F 100% 30.03 in 0.5 mi NNW 2.3 mph - N/A Fog Fog
4:18 AM 60.8 °F - 60.8 °F 100% 30.02 in 0.5 mi Calm Calm - N/A Fog Fog
4:28 AM 62.6 °F - 62.6 °F 100% 30.02 in 0.8 mi Calm Calm - N/A   Mist
4:38 AM 60.8 °F - 60.8 °F 100% 30.02 in 4.0 mi Calm Calm - N/A   Partly Cloudy
4:58 AM 61.7 °F - 61.7 °F 100% 30.02 in 3.0 mi Calm Calm - N/A   Scattered Clouds
5:08 AM 60.8 °F - 60.8 °F 100% 30.02 in 6.0 mi Calm Calm - N/A   Mostly Cloudy
5:18 AM 60.8 °F - 60.8 °F 100% 30.02 in 7.0 mi Calm Calm - N/A   Overcast
5:28 AM 62.6 °F - 62.6 °F 100% 30.02 in 5.0 mi Calm Calm - N/A   Overcast
5:38 AM 62.6 °F - 62.6 °F 100% 30.02 in 0.5 mi Calm Calm - N/A Fog Fog
5:48 AM 62.6 °F - 62.6 °F 100% 30.03 in 0.2 mi East 1.2 mph - N/A Fog Fog
5:58 AM 63.1 °F - 63.1 °F 100% 30.04 in 0.2 mi NE 1.2 mph - N/A Fog Fog
6:08 AM 64.4 °F - 64.4 °F 100% 30.03 in 0.2 mi Calm Calm - N/A Fog Fog
6:18 AM 64.4 °F - 64.4 °F 100% 30.03 in 0.8 mi East 3.5 mph - N/A   Mist
6:28 AM 64.4 °F - 64.4 °F 100% 30.04 in 0.5 mi NE 1.2 mph - N/A Fog Fog
6:38 AM 64.4 °F - 64.4 °F 100% 30.04 in 0.2 mi East 2.3 mph - N/A Fog Fog
6:58 AM 65.7 °F - 65.7 °F 100% 30.04 in 0.2 mi Calm Calm - N/A Fog Fog
7:48 AM 66.2 °F - 66.2 °F 100% 30.05 in 0.2 mi North 1.2 mph - N/A Fog Fog
7:58 AM 66.9 °F - 66.9 °F 100% 30.06 in 0.2 mi North 1.2 mph - N/A Fog Fog
8:18 AM 68.0 °F - 68.0 °F 100% 30.05 in 0.5 mi Calm Calm - N/A Fog Fog
8:28 AM 68.0 °F - 68.0 °F 100% 30.06 in 0.2 mi Calm Calm - N/A Fog Fog
8:58 AM 68.9 °F - 68.9 °F 100% 30.06 in 0.5 mi Calm Calm - N/A Fog Fog
9:08 AM 69.8 °F - 69.8 °F 100% 30.06 in 1.0 mi Calm Calm - N/A   Overcast
9:18 AM 69.8 °F - 69.8 °F 100% 30.06 in 1.5 mi SSE 1.2 mph - N/A   Overcast
9:28 AM 69.8 °F - 69.8 °F 100% 30.07 in 2.5 mi SSE 3.5 mph - N/A   Overcast
9:38 AM 69.8 °F - 69.8 °F 100% 30.07 in 3.0 mi South 2.3 mph - N/A   Overcast
9:58 AM 70.2 °F - 70.2 °F 100% 30.08 in 4.0 mi South 1.2 mph - N/A   Overcast
10:38 AM 71.6 °F - 71.6 °F 100% 30.06 in 10.0 mi Variable 1.2 mph - N/A Rain Light Rain
10:58 AM 71.6 °F - 71.6 °F 100% 30.06 in 10.0 mi Variable 1.2 mph - 0.00 in Rain Light Rain
11:08 AM 71.6 °F - 71.6 °F 100% 30.06 in 10.0 mi Variable 1.2 mph - N/A Rain Light Rain
11:18 AM 73.4 °F - 73.4 °F 100% 30.06 in 10.0 mi SW 2.3 mph - N/A Rain Light Rain
11:28 AM 71.6 °F - 71.6 °F 100% 30.06 in 10.0 mi Calm Calm - N/A   Overcast
11:38 AM 73.4 °F - 73.4 °F 100% 30.06 in 10.0 mi South 4.6 mph - N/A   Overcast
11:58 AM 75.4 °F - 75.4 °F 100% 30.06 in 10.0 mi SSE 5.8 mph - 0.00 in   Mostly Cloudy
12:18 PM 77.0 °F - 69.8 °F 78% 30.04 in 10.0 mi SSE 8.1 mph - N/A   Mostly Cloudy
12:28 PM 78.8 °F - 69.8 °F 74% 30.04 in 10.0 mi SSE 5.8 mph - N/A   Scattered Clouds
12:58 PM 80.1 °F 82.3 °F 67.1 °F 64% 30.02 in 10.0 mi ESE 6.9 mph - N/A   Scattered Clouds
1:58 PM 83.5 °F 85.7 °F 66.4 °F 56% 29.99 in 10.0 mi South 5.8 mph - N/A   Partly Cloudy
2:58 PM 85.8 °F 87.6 °F 65.3 °F 50% 29.96 in 10.0 mi SSE 10.4 mph - N/A   Partly Cloudy
3:58 PM 86.9 °F 88.6 °F 65.1 °F 48% 29.94 in 10.0 mi SSW 4.6 mph - N/A   Partly Cloudy
4:58 PM 86.7 °F 88.7 °F 65.3 °F 49% 29.94 in 10.0 mi SE 5.8 mph - N/A   Clear
5:58 PM 84.6 °F 86.6 °F 65.7 °F 53% 29.93 in 10.0 mi South 3.5 mph - N/A   Mostly Cloudy
6:58 PM 80.6 °F 83.6 °F 69.1 °F 68% 29.94 in 10.0 mi SSE 10.4 mph - N/A   Mostly Cloudy
7:58 PM 75.9 °F - 70.2 °F 82% 29.95 in 10.0 mi ESE 5.8 mph - N/A   Scattered Clouds
8:58 PM 74.7 °F - 71.2 °F 89% 29.94 in 10.0 mi ESE 5.8 mph - N/A   Clear
9:58 PM 73.9 °F - 72.0 °F 93% 29.95 in 10.0 mi ESE 8.1 mph - N/A   Clear
10:58 PM 73.2 °F - 72.9 °F 99% 29.94 in 10.0 mi ESE 5.8 mph - N/A   Partly Cloudy
11:38 PM 73.4 °F - 73.4 °F 100% 29.93 in 10.0 mi SE 5.8 mph - N/A   Mostly Cloudy
11:58 PM 72.7 °F - 72.7 °F 100% 29.92 in 10.0 mi ESE 6.9 mph - N/A   Overcast